Dennis Port, MA

6:33 AM EST on February 28, 2017 (GMT -0500)
KT1OK @ Yenom Rd, South Dennis | | Change Station

Elev 50 ft 41.67 °N, 70.15 °W | Updated 6 seconds ago

Overcast
Overcast
41.5 °F
Feels Like 42 °F
N
0.0
Wind Variable Wind from South
Gusts 0.0 mph

Today
High -- | Low -- °F
--% Chance of Precip.
Yesterday
High -- | Low -- °F
Precip. -- in
Pressure 30.40 in
Visibility 10.0 miles
Clouds Overcast 8000 ft
Windchill 42 °F
Dew Point 38 °F
Humidity 88%
Rainfall 0.00 in
Snow Depth Not available.
6:16 AM 5:30 PM
Waxing Crescent, 4% visible
METAR KHYA 281056Z 21004KT 10SM OVC080 04/03 A3040 RMK AO2 SLP295 T00440033
Pressure 30.40 in
Visibility 10.0 miles
Clouds Overcast 8000 ft
Windchill 42 °F
Dew Point 38 °F
Humidity 88%
Rainfall 0.00 in
Snow Depth Not available.
6:16 AM 5:30 PM
Waxing Crescent, 4% visible
METAR KHYA 281056Z 21004KT 10SM OVC080 04/03 A3040 RMK AO2 SLP295 T00440033

Get Your Daily Forecast Email!

Thanks for signing up!

Be on the lookout for a verification email in your inbox.

You'll start receiving the daily forecast at 8 AM.

×

10-Day Weather Forecast

Almanac

Astronomy

Feb. 28, 2017 Rise Set
Actual Time
Civil Twilight
Nautical Twilight
Astronomical Twilight
Moon
Length of Visible Light
Length of Day
Tomorrow will be .
, % of the Moon is Illuminated

Today's Extremes

State Highs State Lows

Community

WunderPhotos

Upload Photos

1,962,540 photos uploaded!

WunderBlog® & News

Nearby

Air Quality

  Air Quality AQ Index Pollutant
Not available.

Snow Depth

Station Depth Elevation

Earthquake Activity

City Distance Mag. Time & Date
Minimum magnitude displayed is 2.5.

Coastal Water Temperatures

Place Temperature

Stations

Nearby Weather Stations

Station Location Temp. Windchill Dew Point Humidity Wind Precip. Elev Updated Type
                   

Watches & Warnings

There are currently no watches in effect.